QPF
0.02 0.02 0.02 0.03 0.03 0.02 0.01 0.01 0.00 0.00 0.01 0.01 0.01 0.02 0.02 0.02 0.02 0.02 0.03 0.03 0.04 0.05 0.05 0.05 0.05 0.05 0.05 0.05 0.05 0.06 0.06 0.07 0.08 0.08 0.07 0.08 0.08 0.08 0.08 0.07 0.05 0.04 0.04
0.02 0.02 0.02 0.02 0.02 0.02 0.01 0.00 0.00 0.01 0.01 0.01 0.01 0.02 0.02 0.02 0.03 0.04 0.04 0.04 0.04 0.05 0.05 0.06 0.06 0.06 0.07 0.07 0.08 0.09 0.09 0.09 0.10 0.10 0.09 0.08 0.09 0.11 0.11 0.09 0.05 0.03 0.04
0.02 0.02 0.01 0.01 0.02 0.01 0.00 0.01 0.01 0.01 0.01 0.02 0.02 0.02 0.02 0.02 0.03 0.04 0.04 0.05 0.05 0.05 0.05 0.05 0.06 0.06 0.07 0.07 0.08 0.09 0.10 0.11 0.12 0.12 0.11 0.12 0.12 0.13 0.13 0.10 0.07 0.06 0.06
0.02 0.02 0.01 0.01 0.01 0.01 0.00 0.01 0.01 0.01 0.02 0.02 0.02 0.03 0.03 0.03 0.03 0.04 0.04 0.04 0.05 0.05 0.05 0.05 0.04 0.05 0.05 0.05 0.06 0.07 0.08 0.10 0.11 0.11 0.10 0.12 0.12 0.11 0.10 0.10 0.10 0.09 0.08
0.02 0.02 0.01 0.01 0.02 0.01 0.01 0.01 0.01 0.02 0.03 0.03 0.03 0.04 0.05 0.05 0.05 0.04 0.04 0.04 0.05 0.05 0.06 0.05 0.04 0.04 0.04 0.04 0.04 0.05 0.06 0.07 0.09 0.10 0.11 0.09 0.10 0.11 0.09 0.07 0.08 0.08 0.09
0.02 0.02 0.02 0.02 0.02 0.01 0.01 0.01 0.02 0.02 0.04 0.04 0.04 0.06 0.06 0.06 0.07 0.06 0.05 0.05 0.05 0.05 0.05 0.05 0.05 0.05 0.06 0.06 0.06 0.06 0.06 0.06 0.07 0.08 0.08 0.07 0.07 0.08 0.09 0.07 0.07 0.07 0.08
0.02 0.02 0.02 0.02 0.02 0.02 0.02 0.02 0.03 0.04 0.04 0.05 0.05 0.07 0.06 0.05 0.06 0.08 0.09 0.08 0.06 0.06 0.06 0.05 0.06 0.06 0.07 0.06 0.07 0.08 0.08 0.08 0.07 0.07 0.07 0.07 0.07 0.07 0.08 0.09 0.07 0.07 0.07
0.02 0.02 0.02 0.02 0.03 0.04 0.04 0.04 0.04 0.05 0.04 0.04 0.04 0.06 0.06 0.07 0.06 0.06 0.08 0.09 0.10 0.09 0.09 0.08 0.07 0.06 0.05 0.06 0.05 0.06 0.06 0.07 0.07 0.07 0.07 0.07 0.07 0.07 0.09 0.10 0.09 0.07 0.07
0.02 0.03 0.03 0.03 0.04 0.05 0.05 0.04 0.04 0.04 0.04 0.03 0.03 0.04 0.05 0.06 0.07 0.07 0.07 0.06 0.08 0.10 0.11 0.11 0.10 0.08 0.08 0.08 0.06 0.06 0.06 0.07 0.08 0.08 0.08 0.08 0.09 0.10 0.10 0.11 0.11 0.09 0.08
0.02 0.03 0.03 0.03 0.04 0.04 0.05 0.05 0.04 0.04 0.05 0.05 0.04 0.04 0.04 0.05 0.07 0.07 0.05 0.05 0.06 0.08 0.09 0.09 0.09 0.10 0.11 0.10 0.09 0.08 0.07 0.07 0.06 0.06 0.06 0.07 0.07 0.07 0.09 0.09 0.10 0.09 0.07
0.01 0.02 0.02 0.02 0.03 0.03 0.04 0.04 0.03 0.04 0.05 0.05 0.06 0.05 0.05 0.05 0.05 0.06 0.04 0.03 0.04 0.05 0.06 0.06 0.07 0.09 0.09 0.09 0.10 0.09 0.08 0.07 0.06 0.06 0.06 0.06 0.06 0.07 0.07 0.07 0.07 0.07 0.06
0.01 0.01 0.01 0.02 0.02 0.02 0.02 0.03 0.03 0.03 0.04 0.04 0.04 0.05 0.05 0.05 0.04 0.05 0.04 0.03 0.03 0.04 0.04 0.04 0.05 0.06 0.06 0.08 0.08 0.09 0.09 0.08 0.07 0.07 0.07 0.07 0.07 0.07 0.07 0.07 0.07 0.06 0.06
0.01 0.01 0.01 0.01 0.01 0.02 0.02 0.02 0.03 0.03 0.03 0.04 0.03 0.04 0.05 0.04 0.04 0.04 0.04 0.03 0.03 0.03 0.03 0.03 0.04 0.05 0.05 0.05 0.06 0.08 0.08 0.08 0.08 0.07 0.07 0.07 0.07 0.07 0.07 0.07 0.07 0.06 0.06
0.01 0.01 0.02 0.02 0.02 0.02 0.02 0.02 0.02 0.02 0.03 0.03 0.04 0.04 0.04 0.04 0.04 0.04 0.04 0.04 0.04 0.03 0.04 0.04 0.04 0.04 0.04 0.04 0.05 0.06 0.07 0.07 0.07 0.08 0.07 0.07 0.07 0.06 0.08 0.08 0.06 0.05 0.05
0.01 0.01 0.02 0.02 0.02 0.02 0.02 0.02 0.02 0.03 0.03 0.04 0.04 0.04 0.04 0.05 0.05 0.05 0.06 0.06 0.06 0.05 0.04 0.05 0.05 0.05 0.05 0.04 0.04 0.05 0.06 0.06 0.07 0.07 0.08 0.08 0.07 0.07 0.07 0.07 0.06 0.06 0.05
0.01 0.01 0.01 0.02 0.02 0.02 0.02 0.02 0.03 0.04 0.04 0.04 0.04 0.05 0.05 0.05 0.05 0.05 0.04 0.05 0.05 0.04 0.04 0.04 0.04 0.04 0.04 0.03 0.03 0.04 0.05 0.05 0.05 0.06 0.07 0.06 0.07 0.07 0.06 0.06 0.07 0.06 0.06
0.01 0.01 0.01 0.02 0.02 0.02 0.02 0.02 0.03 0.03 0.03 0.04 0.04 0.04 0.04 0.03 0.03 0.03 0.03 0.04 0.04 0.04 0.03 0.03 0.03 0.03 0.03 0.03 0.03 0.04 0.05 0.05 0.05 0.06 0.06 0.06 0.06 0.06 0.05 0.05 0.06 0.07 0.06
0.02 0.02 0.02 0.02 0.01 0.02 0.02 0.02 0.03 0.03 0.02 0.03 0.04 0.04 0.04 0.03 0.03 0.05 0.05 0.05 0.05 0.05 0.04 0.03 0.03 0.03 0.03 0.03 0.03 0.04 0.05 0.05 0.05 0.05 0.06 0.06 0.06 0.06 0.06 0.06 0.06 0.06 0.05
0.02 0.02 0.02 0.02 0.01 0.01 0.02 0.02 0.02 0.03 0.03 0.03 0.03 0.03 0.04 0.03 0.04 0.05 0.05 0.05 0.06 0.06 0.05 0.04 0.04 0.03 0.03 0.03 0.03 0.03 0.04 0.04 0.05 0.05 0.06 0.06 0.06 0.06 0.05 0.05 0.05 0.05 0.04
0.02 0.02 0.02 0.02 0.01 0.01 0.02 0.02 0.02 0.03 0.03 0.03 0.03 0.04 0.04 0.04 0.04 0.04 0.05 0.05 0.06 0.06 0.05 0.05 0.05 0.04 0.04 0.04 0.04 0.04 0.04 0.04 0.05 0.05 0.05 0.05 0.05 0.05 0.04 0.04 0.04 0.04 0.03
0.02 0.02 0.02 0.01 0.01 0.01 0.02 0.02 0.02 0.02 0.02 0.03 0.03 0.04 0.05 0.05 0.05 0.04 0.05 0.05 0.05 0.06 0.06 0.06 0.06 0.06 0.05 0.05 0.05 0.05 0.04 0.04 0.04 0.05 0.06 0.05 0.04 0.04 0.04 0.04 0.04 0.03 0.03
0.02 0.02 0.02 0.02 0.02 0.02 0.02 0.02 0.03 0.02 0.02 0.03 0.03 0.04 0.04 0.04 0.04 0.04 0.05 0.06 0.06 0.06 0.06 0.06 0.06 0.06 0.06 0.06 0.06 0.06 0.06 0.06 0.05 0.05 0.06 0.05 0.04 0.04 0.04 0.04 0.04 0.03 0.03
0.03 0.03 0.02 0.02 0.02 0.02 0.03 0.03 0.03 0.03 0.02 0.03 0.04 0.04 0.03 0.03 0.03 0.04 0.05 0.06 0.06 0.06 0.05 0.05 0.05 0.05 0.05 0.05 0.05 0.06 0.06 0.05 0.05 0.05 0.05 0.05 0.04 0.05 0.05 0.04 0.04 0.03 0.03
0.03 0.03 0.03 0.03 0.03 0.02 0.03 0.03 0.03 0.03 0.03 0.04 0.03 0.03 0.03 0.03 0.03 0.04 0.04 0.05 0.05 0.05 0.05 0.05 0.05 0.05 0.05 0.05 0.05 0.06 0.06 0.06 0.05 0.05 0.05 0.05 0.05 0.04 0.05 0.05 0.04 0.04 0.04
0.03 0.03 0.03 0.03 0.03 0.03 0.03 0.03 0.03 0.03 0.04 0.05 0.04 0.04 0.04 0.04 0.03 0.03 0.03 0.04 0.05 0.05 0.05 0.05 0.05 0.05 0.05 0.05 0.05 0.06 0.07 0.08 0.07 0.06 0.05 0.05 0.05 0.04 0.04 0.05 0.05 0.04 0.04
0.04 0.03 0.03 0.03 0.04 0.04 0.04 0.04 0.03 0.03 0.04 0.05 0.04 0.04 0.05 0.04 0.04 0.04 0.04 0.04 0.05 0.06 0.06 0.05 0.05 0.05 0.06 0.06 0.06 0.06 0.07 0.08 0.07 0.07 0.06 0.05 0.05 0.04 0.04 0.04 0.04 0.04 0.04
MSLP
1007.96 1008.70 1009.43 1010.13 1010.79 1011.40 1011.97 1012.49 1012.98 1013.43 1013.84 1014.19 1014.48 1014.70 1014.84 1014.92 1014.94 1014.91 1014.86 1014.79 1014.70 1014.59 1014.46 1014.29 1014.07 1013.78 1013.41 1012.97 1012.44 1011.85 1011.20 1010.51 1009.78 1009.03 1008.27 1007.51 1006.73 1005.95 1005.15 1004.35 1003.54 1002.72 1001.90
1007.26 1007.97 1008.68 1009.37 1010.04 1010.67 1011.28 1011.86 1012.40 1012.91 1013.37 1013.77 1014.09 1014.32 1014.47 1014.53 1014.52 1014.45 1014.33 1014.19 1014.03 1013.87 1013.68 1013.48 1013.25 1012.97 1012.63 1012.22 1011.74 1011.19 1010.57 1009.90 1009.18 1008.41 1007.62 1006.80 1005.97 1005.12 1004.26 1003.40 1002.54 1001.67 1000.81
1006.72 1007.38 1008.05 1008.72 1009.37 1010.01 1010.62 1011.22 1011.80 1012.35 1012.85 1013.29 1013.64 1013.90 1014.06 1014.11 1014.07 1013.96 1013.80 1013.60 1013.38 1013.15 1012.93 1012.69 1012.44 1012.17 1011.85 1011.48 1011.04 1010.53 1009.95 1009.30 1008.57 1007.80 1006.97 1006.11 1005.22 1004.31 1003.40 1002.49 1001.59 1000.68 999.79
1006.38 1007.00 1007.62 1008.24 1008.86 1009.46 1010.06 1010.66 1011.24 1011.80 1012.32 1012.78 1013.15 1013.43 1013.59 1013.65 1013.60 1013.46 1013.26 1013.02 1012.75 1012.48 1012.21 1011.95 1011.69 1011.41 1011.11 1010.77 1010.36 1009.88 1009.33 1008.68 1007.96 1007.16 1006.30 1005.39 1004.45 1003.50 1002.54 1001.60 1000.67 999.76 998.87
1006.29 1006.85 1007.41 1007.98 1008.54 1009.09 1009.65 1010.21 1010.76 1011.30 1011.81 1012.27 1012.64 1012.92 1013.09 1013.14 1013.09 1012.94 1012.72 1012.45 1012.15 1011.85 1011.55 1011.27 1010.99 1010.71 1010.42 1010.09 1009.70 1009.24 1008.69 1008.04 1007.30 1006.48 1005.58 1004.62 1003.64 1002.64 1001.66 1000.70 999.77 998.87 998.01
1006.42 1006.92 1007.42 1007.92 1008.41 1008.90 1009.40 1009.90 1010.40 1010.89 1011.36 1011.78 1012.13 1012.40 1012.55 1012.60 1012.54 1012.39 1012.16 1011.88 1011.57 1011.25 1010.93 1010.63 1010.34 1010.06 1009.76 1009.43 1009.04 1008.57 1008.01 1007.35 1006.58 1005.72 1004.78 1003.77 1002.74 1001.72 1000.71 999.75 998.85 998.00 997.20
1006.72 1007.16 1007.60 1008.03 1008.46 1008.87 1009.29 1009.72 1010.14 1010.57 1010.97 1011.33 1011.64 1011.86 1011.99 1012.02 1011.96 1011.80 1011.57 1011.29 1010.98 1010.65 1010.34 1010.03 1009.74 1009.44 1009.13 1008.79 1008.38 1007.89 1007.30 1006.61 1005.80 1004.89 1003.89 1002.84 1001.78 1000.72 999.71 998.77 997.91 997.13 996.43
1007.10 1007.48 1007.86 1008.24 1008.59 1008.95 1009.29 1009.64 1009.98 1010.32 1010.64 1010.92 1011.16 1011.32 1011.41 1011.41 1011.33 1011.17 1010.94 1010.67 1010.37 1010.06 1009.75 1009.45 1009.15 1008.84 1008.52 1008.15 1007.71 1007.19 1006.56 1005.82 1004.96 1004.00 1002.95 1001.86 1000.76 999.69 998.68 997.77 996.96 996.27 995.69
1007.49 1007.81 1008.14 1008.45 1008.76 1009.05 1009.33 1009.61 1009.87 1010.12 1010.35 1010.54 1010.69 1010.79 1010.81 1010.77 1010.67 1010.50 1010.29 1010.03 1009.76 1009.47 1009.18 1008.89 1008.59 1008.27 1007.93 1007.53 1007.06 1006.50 1005.82 1005.02 1004.11 1003.10 1002.01 1000.88 999.76 998.68 997.68 996.81 996.07 995.47 995.02
1007.81 1008.08 1008.35 1008.63 1008.89 1009.13 1009.36 1009.57 1009.76 1009.93 1010.07 1010.18 1010.24 1010.25 1010.22 1010.13 1010.00 1009.83 1009.62 1009.39 1009.15 1008.89 1008.63 1008.36 1008.07 1007.75 1007.39 1006.96 1006.45 1005.84 1005.11 1004.27 1003.31 1002.26 1001.14 999.99 998.85 997.77 996.80 995.97 995.30 994.80 994.46
1008.06 1008.27 1008.49 1008.72 1008.95 1009.15 1009.34 1009.50 1009.63 1009.73 1009.79 1009.81 1009.79 1009.73 1009.63 1009.50 1009.35 1009.17 1008.99 1008.79 1008.58 1008.36 1008.13 1007.89 1007.61 1007.29 1006.91 1006.45 1005.90 1005.25 1004.48 1003.60 1002.61 1001.53 1000.39 999.24 998.11 997.06 996.13 995.34 994.74 994.33 994.10
1008.24 1008.38 1008.56 1008.74 1008.93 1009.10 1009.25 1009.37 1009.45 1009.49 1009.48 1009.43 1009.34 1009.21 1009.07 1008.91 1008.74 1008.57 1008.41 1008.25 1008.09 1007.91 1007.72 1007.50 1007.24 1006.92 1006.52 1006.03 1005.45 1004.75 1003.95 1003.04 1002.03 1000.95 999.83 998.70 997.61 996.60 995.72 995.00 994.47 994.14 994.00
1008.38 1008.45 1008.56 1008.70 1008.84 1008.98 1009.09 1009.17 1009.21 1009.20 1009.14 1009.03 1008.88 1008.72 1008.54 1008.36 1008.20 1008.05 1007.92 1007.81 1007.70 1007.57 1007.43 1007.23 1006.98 1006.65 1006.23 1005.72 1005.09 1004.36 1003.53 1002.61 1001.60 1000.55 999.46 998.39 997.37 996.43 995.63 994.99 994.53 994.27 994.20
1008.49 1008.49 1008.53 1008.61 1008.70 1008.79 1008.87 1008.91 1008.91 1008.86 1008.75 1008.61 1008.43 1008.24 1008.05 1007.88 1007.73 1007.62 1007.54 1007.48 1007.43 1007.36 1007.25 1007.08 1006.84 1006.50 1006.05 1005.50 1004.84 1004.08 1003.23 1002.30 1001.32 1000.30 999.28 998.30 997.37 996.54 995.84 995.29 994.91 994.72 994.71
1008.58 1008.50 1008.46 1008.47 1008.51 1008.55 1008.59 1008.59 1008.55 1008.46 1008.33 1008.16 1007.97 1007.78 1007.60 1007.45 1007.35 1007.29 1007.26 1007.27 1007.27 1007.26 1007.18 1007.04 1006.79 1006.44 1005.96 1005.37 1004.67 1003.88 1003.02 1002.10 1001.15 1000.19 999.27 998.39 997.58 996.88 996.30 995.86 995.58 995.45 995.49
1008.60 1008.44 1008.35 1008.29 1008.27 1008.26 1008.24 1008.21 1008.14 1008.02 1007.87 1007.70 1007.51 1007.33 1007.18 1007.07 1007.02 1007.02 1007.07 1007.14 1007.21 1007.24 1007.21 1007.07 1006.83 1006.45 1005.95 1005.31 1004.58 1003.76 1002.88 1001.98 1001.07 1000.19 999.36 998.61 997.94 997.38 996.93 996.61 996.43 996.38 996.46
1008.51 1008.31 1008.15 1008.04 1007.97 1007.91 1007.85 1007.78 1007.68 1007.55 1007.39 1007.21 1007.03 1006.88 1006.77 1006.72 1006.74 1006.81 1006.93 1007.07 1007.20 1007.27 1007.27 1007.15 1006.90 1006.50 1005.96 1005.29 1004.52 1003.68 1002.80 1001.91 1001.06 1000.26 999.53 998.90 998.37 997.95 997.64 997.45 997.36 997.38 997.49
1008.29 1008.05 1007.86 1007.72 1007.60 1007.51 1007.42 1007.32 1007.19 1007.05 1006.88 1006.71 1006.56 1006.44 1006.38 1006.39 1006.47 1006.61 1006.80 1007.00 1007.18 1007.30 1007.33 1007.22 1006.96 1006.55 1005.99 1005.29 1004.49 1003.64 1002.76 1001.90 1001.09 1000.36 999.74 999.22 998.82 998.54 998.35 998.27 998.27 998.35 998.49
1007.92 1007.68 1007.49 1007.33 1007.19 1007.08 1006.96 1006.84 1006.70 1006.55 1006.39 1006.23 1006.10 1006.02 1006.00 1006.06 1006.20 1006.40 1006.65 1006.91 1007.13 1007.29 1007.34 1007.24 1006.99 1006.57 1005.99 1005.28 1004.48 1003.62 1002.76 1001.93 1001.17 1000.51 999.97 999.56 999.27 999.09 999.01 999.01 999.08 999.20 999.37
1007.43 1007.21 1007.03 1006.88 1006.75 1006.63 1006.51 1006.38 1006.23 1006.08 1005.92 1005.78 1005.67 1005.62 1005.64 1005.74 1005.92 1006.17 1006.46 1006.76 1007.02 1007.20 1007.27 1007.19 1006.94 1006.53 1005.96 1005.25 1004.46 1003.62 1002.79 1002.00 1001.30 1000.70 1000.24 999.90 999.69 999.60 999.59 999.65 999.77 999.92 1000.09
1006.85 1006.68 1006.54 1006.41 1006.30 1006.19 1006.08 1005.95 1005.80 1005.65 1005.50 1005.37 1005.28 1005.26 1005.30 1005.43 1005.64 1005.92 1006.23 1006.55 1006.83 1007.03 1007.11 1007.04 1006.81 1006.41 1005.87 1005.19 1004.43 1003.64 1002.85 1002.12 1001.47 1000.94 1000.54 1000.27 1000.12 1000.07 1000.11 1000.21 1000.34 1000.50 1000.67
1006.23 1006.12 1006.02 1005.94 1005.86 1005.77 1005.67 1005.55 1005.41 1005.27 1005.13 1005.02 1004.95 1004.94 1005.00 1005.15 1005.37 1005.65 1005.97 1006.29 1006.57 1006.77 1006.86 1006.80 1006.59 1006.23 1005.72 1005.09 1004.39 1003.66 1002.94 1002.27 1001.69 1001.22 1000.88 1000.66 1000.56 1000.55 1000.60 1000.72 1000.86 1001.01 1001.17
1005.58 1005.53 1005.49 1005.45 1005.41 1005.35 1005.27 1005.17 1005.05 1004.92 1004.80 1004.71 1004.66 1004.67 1004.74 1004.90 1005.12 1005.40 1005.70 1006.01 1006.27 1006.46 1006.54 1006.49 1006.30 1005.97 1005.51 1004.95 1004.32 1003.67 1003.04 1002.45 1001.95 1001.56 1001.28 1001.11 1001.04 1001.05 1001.12 1001.24 1001.37 1001.52 1001.66
1004.88 1004.89 1004.91 1004.91 1004.91 1004.88 1004.83 1004.76 1004.67 1004.58 1004.49 1004.43 1004.41 1004.44 1004.53 1004.69 1004.91 1005.17 1005.45 1005.73 1005.96 1006.13 1006.19 1006.14 1005.97 1005.67 1005.27 1004.78 1004.24 1003.68 1003.14 1002.66 1002.25 1001.93 1001.72 1001.60 1001.57 1001.61 1001.70 1001.82 1001.95 1002.08 1002.22
1004.09 1004.15 1004.21 1004.27 1004.30 1004.31 1004.30 1004.28 1004.24 1004.20 1004.16 1004.15 1004.18 1004.25 1004.37 1004.55 1004.76 1005.00 1005.26 1005.49 1005.69 1005.82 1005.86 1005.80 1005.63 1005.37 1005.01 1004.59 1004.14 1003.68 1003.25 1002.87 1002.56 1002.34 1002.20 1002.15 1002.17 1002.24 1002.35 1002.48 1002.62 1002.76 1002.89
1003.14 1003.26 1003.37 1003.46 1003.54 1003.61 1003.66 1003.69 1003.72 1003.75 1003.80 1003.86 1003.96 1004.09 1004.25 1004.45 1004.67 1004.91 1005.13 1005.33 1005.48 1005.57 1005.57 1005.49 1005.33 1005.08 1004.78 1004.43 1004.06 1003.70 1003.37 1003.10 1002.89 1002.76 1002.71 1002.73 1002.81 1002.92 1003.07 1003.23 1003.39 1003.54 1003.68
Thickness
5528 5527 5527 5526 5525 5524 5524 5523 5522 5521 5519 5519 5518 5517 5517 5516 5516 5514 5514 5513 5513 5513 5511 5510 5510 5508 5505 5504 5503 5504 5504 5506 5511 5517 5516 5515 5515 5516 5518 5518 5520 5523 5526
5517 5516 5516 5515 5514 5513 5513 5512 5510 5509 5509 5507 5506 5506 5506 5506 5506 5506 5504 5504 5503 5503 5503 5501 5501 5498 5497 5496 5496 5496 5497 5499 5500 5504 5507 5506 5506 5507 5508 5509 5510 5513 5515
5507 5506 5505 5504 5502 5502 5501 5500 5499 5498 5497 5496 5494 5494 5495 5495 5495 5495 5495 5495 5494 5494 5494 5494 5493 5491 5489 5489 5489 5490 5490 5491 5492 5493 5497 5498 5498 5498 5499 5500 5501 5504 5506
5494 5494 5493 5492 5492 5491 5490 5489 5488 5487 5486 5485 5483 5483 5483 5484 5485 5485 5486 5486 5486 5486 5486 5486 5485 5484 5483 5482 5482 5483 5483 5483 5484 5485 5488 5490 5491 5491 5492 5493 5494 5497 5500
5483 5482 5482 5481 5481 5480 5479 5478 5478 5477 5475 5474 5473 5473 5473 5474 5476 5477 5477 5478 5479 5480 5480 5480 5480 5478 5476 5475 5476 5477 5476 5477 5477 5478 5481 5483 5485 5485 5486 5486 5487 5490 5493
5472 5472 5471 5471 5471 5470 5469 5468 5468 5467 5466 5465 5464 5464 5465 5467 5467 5467 5467 5470 5471 5473 5474 5475 5474 5472 5471 5470 5470 5470 5469 5470 5471 5473 5475 5478 5480 5481 5480 5480 5481 5483 5487
5461 5461 5461 5461 5460 5460 5459 5458 5458 5458 5457 5457 5456 5456 5458 5459 5459 5460 5459 5462 5463 5465 5466 5467 5467 5467 5465 5465 5465 5464 5465 5465 5466 5468 5470 5473 5475 5475 5474 5475 5475 5476 5478
5451 5451 5451 5450 5450 5450 5449 5450 5450 5450 5449 5449 5449 5449 5451 5452 5451 5452 5452 5454 5456 5457 5458 5458 5459 5460 5459 5458 5458 5460 5461 5461 5462 5463 5465 5467 5468 5468 5469 5469 5469 5469 5469
5440 5441 5440 5439 5440 5440 5440 5441 5441 5441 5442 5442 5442 5442 5443 5445 5444 5445 5444 5446 5448 5450 5451 5451 5451 5452 5452 5451 5452 5454 5456 5456 5456 5457 5458 5460 5462 5463 5463 5463 5463 5463 5463
5429 5429 5429 5429 5430 5431 5431 5432 5432 5432 5433 5434 5434 5435 5436 5437 5438 5438 5438 5438 5441 5443 5444 5445 5444 5444 5445 5446 5447 5449 5450 5450 5450 5451 5452 5454 5456 5457 5458 5458 5458 5458 5457
5418 5419 5420 5420 5421 5422 5422 5423 5423 5424 5425 5426 5427 5428 5429 5430 5432 5432 5431 5432 5434 5436 5437 5438 5439 5438 5439 5440 5441 5442 5443 5442 5443 5444 5446 5448 5449 5449 5450 5450 5451 5452 5451
5409 5410 5411 5411 5412 5412 5414 5414 5415 5416 5417 5419 5421 5422 5422 5423 5424 5425 5425 5425 5426 5428 5430 5431 5431 5431 5432 5433 5434 5435 5435 5435 5436 5438 5439 5440 5441 5441 5441 5442 5442 5442 5442
5399 5401 5402 5402 5403 5404 5405 5406 5407 5408 5409 5411 5413 5415 5416 5417 5418 5418 5418 5418 5419 5421 5422 5423 5423 5424 5424 5426 5427 5427 5428 5429 5430 5431 5432 5432 5432 5433 5433 5433 5433 5433 5433
5390 5391 5393 5394 5395 5396 5397 5398 5399 5400 5401 5403 5404 5407 5408 5409 5410 5411 5411 5412 5412 5414 5415 5416 5416 5416 5417 5417 5418 5419 5421 5422 5423 5424 5424 5424 5424 5425 5426 5426 5426 5426 5425
5381 5382 5384 5385 5387 5388 5389 5389 5391 5392 5392 5394 5396 5398 5400 5402 5403 5403 5404 5405 5406 5407 5408 5409 5410 5410 5411 5411 5412 5412 5413 5414 5415 5417 5417 5418 5418 5418 5418 5418 5418 5418 5417
5371 5374 5375 5377 5378 5379 5381 5383 5383 5384 5385 5386 5388 5390 5392 5393 5395 5396 5398 5399 5400 5400 5401 5403 5404 5404 5404 5404 5405 5406 5407 5408 5409 5410 5411 5411 5411 5411 5410 5410 5409 5410 5409
5363 5365 5367 5369 5370 5371 5372 5375 5377 5379 5379 5380 5382 5383 5385 5387 5389 5391 5392 5393 5394 5394 5395 5396 5397 5397 5397 5397 5398 5399 5400 5401 5403 5404 5405 5405 5405 5404 5404 5403 5403 5402 5401
5355 5357 5359 5360 5361 5362 5364 5366 5368 5370 5373 5375 5375 5376 5378 5380 5382 5384 5385 5386 5388 5388 5388 5389 5390 5391 5391 5392 5393 5393 5394 5395 5397 5398 5398 5399 5399 5398 5398 5397 5396 5395 5394
5348 5350 5352 5353 5354 5355 5356 5358 5359 5361 5363 5365 5367 5369 5371 5372 5374 5376 5377 5379 5380 5381 5381 5383 5384 5385 5386 5386 5387 5388 5389 5390 5391 5392 5392 5392 5392 5392 5392 5391 5390 5388 5388
5342 5344 5345 5347 5348 5349 5350 5351 5352 5354 5355 5357 5359 5361 5362 5365 5367 5368 5369 5371 5372 5373 5374 5376 5378 5379 5380 5381 5382 5383 5384 5385 5385 5386 5387 5387 5387 5387 5387 5386 5385 5384 5382
5337 5338 5339 5341 5342 5343 5343 5344 5345 5346 5347 5349 5351 5352 5354 5356 5358 5359 5361 5362 5364 5366 5368 5370 5372 5373 5375 5376 5378 5378 5379 5380 5381 5381 5382 5383 5383 5383 5382 5381 5380 5379 5378
5331 5332 5333 5334 5335 5335 5336 5337 5338 5339 5341 5342 5344 5345 5346 5348 5350 5351 5353 5355 5357 5359 5361 5364 5366 5368 5370 5373 5374 5375 5375 5376 5377 5378 5379 5380 5380 5379 5378 5377 5376 5374 5373
5325 5326 5327 5327 5328 5329 5330 5331 5332 5334 5335 5336 5337 5338 5339 5341 5342 5344 5346 5349 5351 5354 5356 5359 5361 5364 5367 5368 5370 5371 5372 5373 5373 5375 5375 5376 5376 5375 5375 5373 5372 5371 5369
5319 5320 5320 5321 5322 5323 5324 5325 5326 5327 5329 5330 5331 5332 5333 5335 5336 5338 5340 5343 5346 5348 5351 5354 5357 5360 5363 5365 5366 5367 5369 5370 5370 5371 5372 5373 5373 5372 5371 5369 5368 5367 5365
5313 5313 5314 5315 5316 5318 5318 5320 5321 5322 5323 5324 5326 5327 5328 5330 5332 5334 5335 5338 5341 5344 5347 5350 5354 5356 5359 5361 5363 5364 5365 5367 5368 5368 5369 5370 5369 5368 5367 5365 5364 5363 5361
5307 5307 5309 5310 5311 5312 5313 5314 5315 5316 5318 5319 5321 5323 5324 5326 5328 5330 5332 5335 5337 5340 5344 5347 5350 5353 5355 5357 5359 5361 5362 5364 5365 5366 5367 5367 5366 5365 5363 5362 5361 5359 5358